TimeCEST,TemperatureF,Dew PointF,Humidity,Sea Level PressureIn,VisibilityMPH,Wind Direction,Wind SpeedMPH,Gust SpeedMPH,PrecipitationIn,Events,Conditions,WindDirDegrees,DateUTC
12:25 AM,51.8,51.8,100,29.80,1.6,Variable,2.3,-,N/A,Rain,Rain Showers,0,2013-05-20 22:25:00
12:55 AM,51.8,51.8,100,29.80,1.4,West,3.5,-,N/A,Rain,Light Rain Showers,270,2013-05-20 22:55:00
1:25 AM,51.8,50.0,94,29.80,-9999.0,Variable,2.3,-,N/A,Rain,Heavy Rain Showers,0,2013-05-20 23:25:00
1:55 AM,50.0,50.0,100,29.80,4.3,SW,4.6,-,N/A,Rain,Light Rain,230,2013-05-20 23:55:00
2:00 AM,51,51,98,29.81,6,SW,4.5,,,Rain,Heavy Rain,230,2013-05-21 00:00:00
2:25 AM,50.0,50.0,100,29.80,3.1,Variable,4.6,-,N/A,,Overcast,0,2013-05-21 00:25:00
2:55 AM,50.0,50.0,100,29.80,1.0,West,3.5,-,N/A,,Heavy Drizzle,280,2013-05-21 00:55:00
3:25 AM,50.0,50.0,100,29.80,1.2,West,3.5,-,N/A,,Drizzle,280,2013-05-21 01:25:00
3:55 AM,50.0,50.0,100,29.80,1.6,Variable,2.3,-,N/A,,Partly Cloudy,0,2013-05-21 01:55:00
4:25 AM,50.0,50.0,100,29.77,1.5,WNW,4.6,-,N/A,,Overcast,290,2013-05-21 02:25:00
4:55 AM,50.0,50.0,100,29.80,1.4,NW,4.6,-,N/A,,Overcast,310,2013-05-21 02:55:00
5:00 AM,49,49,100,29.81,1,NNW,4.5,,,,Mist,330,2013-05-21 03:00:00
5:25 AM,48.2,48.2,100,29.80,0.9,NW,4.6,-,N/A,,Overcast,320,2013-05-21 03:25:00
5:55 AM,48.2,48.2,100,29.80,0.8,NNW,3.5,-,N/A,Rain,Rain,330,2013-05-21 03:55:00
6:25 AM,48.2,48.2,100,29.80,0.7,NW,3.5,-,N/A,,Drizzle,320,2013-05-21 04:25:00
6:55 AM,48.2,48.2,100,29.80,0.7,NW,4.6,-,N/A,,Drizzle,320,2013-05-21 04:55:00
7:25 AM,48.2,48.2,100,29.80,1.4,NNW,3.5,-,N/A,,Partly Cloudy,340,2013-05-21 05:25:00
7:55 AM,50.0,50.0,100,29.80,1.0,NNW,3.5,-,N/A,,Drizzle,330,2013-05-21 05:55:00
8:00 AM,49,49,100,29.82,1,NNW,2.2,,,Rain,Light Drizzle,340,2013-05-21 06:00:00
8:25 AM,50.0,50.0,100,29.80,1.6,NW,3.5,-,N/A,,Partly Cloudy,310,2013-05-21 06:25:00
8:55 AM,50.0,50.0,100,29.80,1.7,NNW,4.6,-,N/A,,Overcast,330,2013-05-21 06:55:00
9:25 AM,50.0,50.0,100,29.83,-9999.0,NW,5.8,-,N/A,,Drizzle,320,2013-05-21 07:25:00
9:55 AM,50.0,50.0,100,29.83,1.4,NW,3.5,-,N/A,Rain,Light Rain,310,2013-05-21 07:55:00
10:25 AM,50.0,50.0,100,29.83,2.5,North,6.9,-,N/A,,Drizzle,350,2013-05-21 08:25:00
10:55 AM,50.0,50.0,100,29.83,6.2,North,9.2,-,N/A,,Overcast,350,2013-05-21 08:55:00
11:00 AM,51,49,92,29.85,19,North,8.9,,,Rain,Drizzle,350,2013-05-21 09:00:00
11:25 AM,50.0,50.0,100,29.83,6.2,NNW,9.2,-,N/A,Rain,Light Rain,330,2013-05-21 09:25:00
11:55 AM,50.0,50.0,100,29.86,6.2,NNW,10.4,-,N/A,Rain,Light Rain Showers,330,2013-05-21 09:55:00
12:25 PM,50.0,50.0,100,29.86,3.7,NNW,10.4,-,N/A,,Light Drizzle,330,2013-05-21 10:25:00
12:55 PM,50.0,50.0,100,29.86,5.0,NNW,9.2,-,N/A,,Overcast,330,2013-05-21 10:55:00
1:25 PM,50.0,48.2,94,29.86,5.0,NNW,10.4,-,N/A,,Overcast,330,2013-05-21 11:25:00
1:55 PM,50.0,48.2,94,29.86,3.1,NNW,10.4,-,N/A,,Mostly Cloudy,340,2013-05-21 11:55:00
2:00 PM,50,49,96,29.87,3,NNW,11.2,,,,Mist,330,2013-05-21 12:00:00
2:25 PM,50.0,50.0,100,29.86,4.3,NNW,11.5,-,N/A,,Overcast,330,2013-05-21 12:25:00
2:55 PM,50.0,48.2,94,29.86,-9999.0,NNW,10.4,-,N/A,Rain,Light Drizzle,330,2013-05-21 12:55:00
3:25 PM,50.0,48.2,94,29.86,-9999.0,NNW,11.5,-,N/A,,Drizzle,330,2013-05-21 13:25:00
3:55 PM,50.0,48.2,94,29.86,3.7,NNW,11.5,-,N/A,,Overcast,340,2013-05-21 13:55:00
4:25 PM,50.0,48.2,94,29.86,-9999.0,NNW,10.4,-,N/A,,Overcast,340,2013-05-21 14:25:00
4:55 PM,48.2,48.2,100,29.86,3.1,North,11.5,-,N/A,,Overcast,350,2013-05-21 14:55:00
5:00 PM,49,48,96,29.88,4,NNW,11.2,,,,Mist,340,2013-05-21 15:00:00
5:25 PM,48.2,48.2,100,29.86,3.7,NNW,9.2,-,N/A,,Overcast,340,2013-05-21 15:25:00
5:55 PM,48.2,48.2,100,29.86,1.8,NNW,12.7,-,N/A,,Drizzle,340,2013-05-21 15:55:00
6:25 PM,48.2,48.2,100,29.86,4.3,NNW,11.5,-,N/A,,Overcast,340,2013-05-21 16:25:00
6:55 PM,48.2,48.2,100,29.89,3.7,NNW,13.8,-,N/A,,Overcast,340,2013-05-21 16:55:00
7:25 PM,48.2,46.4,93,29.89,5.6,NNW,13.8,25.3,N/A,,Overcast,340,2013-05-21 17:25:00
7:55 PM,48.2,46.4,93,29.89,6.2,NNW,11.5,-,N/A,,Overcast,340,2013-05-21 17:55:00
8:00 PM,49,47,89,29.89,9,NNW,13.4,,,,Partly Cloudy,340,2013-05-21 18:00:00
8:25 PM,48.2,46.4,93,29.89,6.2,NNW,13.8,-,N/A,,Overcast,340,2013-05-21 18:25:00
8:55 PM,48.2,46.4,93,29.89,6.2,NNW,11.5,-,N/A,,Overcast,340,2013-05-21 18:55:00
9:25 PM,48.2,46.4,93,29.89,6.2,NNW,10.4,-,N/A,,Overcast,340,2013-05-21 19:25:00
9:55 PM,48.2,46.4,93,29.89,6.2,NNW,12.7,-,N/A,,Overcast,340,2013-05-21 19:55:00
10:25 PM,48.2,46.4,93,29.92,4.3,NNW,13.8,-,N/A,,Overcast,340,2013-05-21 20:25:00
10:55 PM,48.2,46.4,93,29.92,5.6,NNW,12.7,-,N/A,,Overcast,340,2013-05-21 20:55:00
11:00 PM,48,46,90,29.92,8,NNW,11.2,,,,Partly Cloudy,340,2013-05-21 21:00:00
11:25 PM,48.2,46.4,93,29.92,6.2,NNW,13.8,-,N/A,,Overcast,330,2013-05-21 21:25:00
11:55 PM,48.2,46.4,93,29.92,4.3,NNW,12.7,-,N/A,,Light Drizzle,340,2013-05-21 21:55:00